CZ-3A DEB, 35551

Orbit data source: Space-Track

CZ-3A DEB, 35551 is space debris in HEO originally from a launch on Fri, 02 Feb 2007 UTC launched from the Xichang Space Center, China (XSC). Debris objects in space refer to the collection of defunct objects orbiting the Earth. Examples of debris include non-operational satellites, rocket bodies, and fragments generated from explosions, collisions, or faulty payload assembly.

Loading next visibility...
Identifier
35551, 2007-003K
Orbit
HEO
Country
Flag of CNCN / PRC
Related business
Manufacturer
Unknown
Mission
Spacecraft
Bus & Motor
Unknown
Mass
Unknown
Launch date (UTC)
2007-02-02 (19 years ago)
Launch vehicle
Unknown
Launch site
Xichang Space Center, China (XSC)
Object type
Payload
Rocket body
Debris
Shape & HBR
Unknown shape, 0.1 m
Radar Cross Section
Medium (>0.1 m² and <1 m²)

Expand to show TLE details & history
Last TLE update: 4 days ago

TLE from 4 days ago
0 CZ-3A DEB
1 35551U 07003K   26122.75465747 -.00000312  00000-0 -42565-2 0  9999
2 35551  24.7350 247.6603 7216327 109.4616 336.3968  2.16471708 20078
Epoch: 2026-05-02T18:06Z
TLE epoch observation values (Epoch: 2026-05-02T18:06:42.405Z)
Latitude
-0°
Longitude
115.17863°
Altitude
9,579.489 km
Speed
5.845 km/s
True Right ascension
16h 30m 05s
True Declination
0° 00' 00"
Sunlit
Object was in daylight at epoch
Visualization orbit readout
Latitude
Unknown
Longitude
Unknown
Altitude
Unknown
Speed
Unknown
Apparent Right ascension
Unknown
Apparent Declination
Unknown
Sunlit
N/A
Visualization observer readout
Local Sidereal Time
16:36:35
Azimuth
Unknown
Elevation
Unknown
Doppler factor
Unknown
Orbital elements
Apogee altitude
37,087.085 km
Perigee altitude
649.667 km
Semi-major axis
25,246.513 km
Eccentricity
0.72163
Inclination
24.735°
RAAN
247.6603°
Arg. of periapsis
109.4616°
True anomaly
250.72693°
Mean anomaly
336.3968°
Eccentric anomaly
300.9299°
Mean motion
0.54105 °/min
Orbital period
665.37 mins
BSTAR
-0.0042565
Loading maneuver chart data...
Computing Atmospheric mass density...
Loading historical data...
Loading historical data...
Loading historical data...
Loading historical data...
Loading historical data...
Loading historical data...
Loading historical data...

Documentation

Showing up to 5 results
|